Capitol Logistics 418


KPVD
Theodore Francis Green State Airport
Providence, Rhode Island, US
KRFD
Chicago/Rockford International Airport
Rockford, Illinois, US

Route Details

Aircraft Information
Primary: Boeing 757-200SF
Backup: Boeing 737-800BCF
Route Data
Distance: 790nm
Sched. Duration: 1h 39m
Avg. Duration: 2h 27m (+88m)
Times Flown: 11
Recm'd Route: BAF HNK NUGNT DJB J60 JOT V171 RFD
Planned Altitude: 38,000ft
Origin Wx: KPVD 292009Z 03008KT 3SM -RA BR SCT006 BKN029 OVC050 08/07 A2975 RMK AO2 P0003 T00780072
Dest. Wx: KRFD 291954Z 36014G22KT 10SM OVC026 07/00 A2998 RMK AO2 SLP156 T00670000
Notes:

Financial History
Total Freight: 595,773lbs
Average Load: 54,161lbs/flt
Fuel Used: 202,917lbs
Avg. Fuel Used: 18,447lbs/flt
Fuel Expense: $192,771
Avg. Fuel Expense: $17,525
Avg. Fuel Cost: $0.95/lbs
Total Gross Income: $787,557
Pilot Pay: $1,799
Total Expenses: $85,628
Total Revenue: $503,124
Average Revenue: $71,596.05